KK7N Weather Reports


Display with metric or nautical units.
time (UTC)temp
F
wind
direction
speed
MPH
gust
MPH
rain 1hr
in
rain 24hr
in
rain mn
in
humidity
%
barometer
mb
20260902033107 65 243 3.0 6.0 0.00 0.00 0.00 63 1011.7
20260902031557 66 176 2.0 9.0 0.00 0.00 0.00 63 1011.6
20260902030053 66 261 2.0 10.0 0.00 0.00 0.00 62 1011.6
20260902024548 67 227 3.0 10.0 0.00 0.00 0.00 61 1011.6
20260902023052 67 220 2.0 7.0 0.00 0.00 0.00 60 1011.4
20260902021606 67 228 4.0 11.0 0.00 0.00 0.00 59 1011.3
20260902020050 67 202 2.0 11.0 0.00 0.00 0.00 58 1011.4
20260902014549 68 241 4.0 11.0 0.00 0.00 0.00 57 1011.3
20260902013103 68 206 3.0 8.0 0.00 0.00 0.00 57 1011.3
20260902011548 68 232 6.0 11.0 0.00 0.00 0.00 56 1011.3
20260902004557 69 202 2.0 10.0 0.00 0.00 0.00 57 1010.9
20260902003053 69 286 3.0 9.0 0.00 0.00 0.00 57 1010.9
20260902001546 69 331 3.0 7.0 0.00 0.00 0.00 57 1010.9
20260902000057 70 250 2.0 8.0 0.00 0.00 0.00 55 1010.9
20260901234556 69 314 2.0 9.0 0.00 0.00 0.00 57 1011.1
20260901233051 70 270 3.0 10.0 0.00 0.00 0.00 57 1011.2
20260901231555 70 205 3.0 8.0 0.00 0.00 0.00 56 1011.3
20260901230055 70 279 2.0 8.0 0.00 0.00 0.00 57 1011.3
20260901224559 70 292 2.0 6.0 0.00 0.00 0.00 56 1011.3
20260901223057 69 284 3.0 5.0 0.00 0.00 0.00 57 1011.4
20260901221554 69 210 2.0 8.0 0.00 0.00 0.00 56 1011.3
20260901220059 69 227 1.0 6.0 0.00 0.00 0.00 57 1011.4
20260901214559 69 263 4.0 9.0 0.00 0.00 0.00 57 1011.4
20260901213100 68 293 5.0 9.0 0.00 0.00 0.00 58 1011.5
20260901211554 67 213 2.0 8.0 0.00 0.00 0.00 60 1011.6
20260901210055 67 296 3.0 7.0 0.00 0.00 0.00 63 1011.6
20260901204550 67 242 4.0 8.0 0.00 0.00 0.00 63 1011.7
20260901203055 67 271 4.0 9.0 0.00 0.00 0.00 63 1011.7
20260901201555 67 276 4.0 9.0 0.00 0.00 0.00 62 1011.7
20260901200108 67 0 3.0 7.0 0.00 0.00 0.00 63 1011.8
20260901194604 66 267 3.0 7.0 0.00 0.00 0.00 64 1011.9
20260901193109 66 231 2.0 6.0 0.00 0.00 0.00 66 1012.1
20260901191607 66 287 3.0 6.0 0.00 0.00 0.00 66 1012.1
20260901190109 65 267 3.0 7.0 0.00 0.00 0.00 68 1012.3
20260901184554 64 223 3.0 7.0 0.00 0.00 0.00 69 1012.5
20260901183053 64 250 3.0 6.0 0.00 0.00 0.00 69 1012.4
20260901181601 64 220 1.0 6.0 0.00 0.00 0.00 71 1012.4
20260901180058 63 261 2.0 6.0 0.00 0.00 0.00 73 1012.6
20260901174554 63 275 2.0 7.0 0.00 0.00 0.00 74 1012.7
20260901173107 62 236 3.0 8.0 0.00 0.00 0.00 75 1012.6
20260901171605 61 168 3.0 9.0 0.00 0.00 0.00 76 1012.6
20260901170057 61 199 2.0 9.0 0.00 0.00 0.00 76 1012.5
20260901164557 61 238 4.0 10.0 0.00 0.00 0.00 75 1012.4
20260901163101 61 223 2.0 7.0 0.00 0.00 0.00 76 1012.3
20260901161559 61 254 3.0 8.0 0.00 0.00 0.00 76 1012.4
20260901160055 61 192 2.0 7.0 0.00 0.00 0.00 75 1012.3
20260901154557 61 222 5.0 9.0 0.00 0.00 0.00 75 1012.3
20260901153054 60 0 0.0 4.0 0.00 0.00 0.00 76 1012.3
20260901151559 60 0 0.0 0.0 0.00 0.00 0.00 76 1012.1
20260901144559 60 0 0.0 0.0 0.00 0.00 0.00 76 1012.0
20260901143110 60 0 0.0 2.0 0.00 0.00 0.00 76 1012.1
20260901141553 60 0 0.0 2.0 0.00 0.00 0.00 77 1012.0
20260901140059 59 0 0.0 4.0 0.00 0.00 0.00 77 1012.0
20260901134558 59 0 0.0 3.0 0.00 0.00 0.00 78 1012.0
20260901133053 59 0 0.0 0.0 0.00 0.00 0.00 78 1011.9
20260901131555 59 0 0.0 0.0 0.00 0.00 0.00 78 1011.9
20260901130058 59 0 0.0 0.0 0.00 0.00 0.00 78 1011.9
20260901124555 59 0 0.0 0.0 0.00 0.00 0.00 78 1011.8
20260901123118 59 0 0.0 2.0 0.00 0.00 0.00 79 1011.9
20260901121605 59 0 0.0 0.0 0.00 0.00 0.00 79 1011.9
20260901120101 58 0 0.0 6.0 0.00 0.00 0.00 79 1011.9
20260901114558 58 0 0.0 3.0 0.00 0.00 0.00 78 1011.8
20260901113104 59 0 0.0 2.0 0.00 0.00 0.00 78 1011.7
20260901111556 59 0 1.0 4.0 0.00 0.00 0.00 78 1011.8
20260901110050 59 153 2.0 5.0 0.00 0.00 0.00 77 1011.6
20260901104600 59 173 3.0 7.0 0.00 0.00 0.00 76 1011.6
20260901103100 59 182 2.0 6.0 0.00 0.00 0.00 76 1011.5
20260901101553 60 188 0.0 3.0 0.00 0.00 0.00 75 1011.4
20260901100113 60 0 2.0 5.0 0.00 0.00 0.00 74 1011.4
20260901094557 61 176 2.0 7.0 0.00 0.00 0.00 73 1011.3
20260901093102 61 0 0.0 4.0 0.00 0.00 0.00 73 1011.2
20260901091604 61 0 0.0 2.0 0.00 0.00 0.00 73 1011.0
20260901090056 62 180 2.0 4.0 0.00 0.00 0.00 71 1010.8
20260901084555 62 0 0.0 0.0 0.00 0.00 0.00 71 1010.7
20260901083105 62 153 0.0 4.0 0.00 0.00 0.00 69 1010.8
20260901081559 63 161 0.0 5.0 0.00 0.00 0.00 68 1010.8
20260901080100 63 170 1.0 9.0 0.00 0.00 0.00 67 1010.6
20260901074554 64 164 2.0 10.0 0.00 0.00 0.00 65 1010.5
20260901073055 65 188 2.0 7.0 0.00 0.00 0.00 65 1010.2
20260901071601 65 161 1.0 4.0 0.00 0.00 0.00 64 1010.0
20260901070104 66 0 1.0 6.0 0.00 0.00 0.00 63 1009.8
20260901064556 67 0 1.0 4.0 0.00 0.00 0.00 62 1009.5
20260901063046 67 169 2.0 6.0 0.00 0.00 0.00 61 1009.2
20260901061548 67 150 1.0 8.0 0.00 0.00 0.00 61 1009.2
20260901060056 68 0 0.0 4.0 0.00 0.00 0.00 60 1008.9
20260901054551 67 144 0.0 3.0 0.00 0.00 0.00 61 1008.6
20260901053109 67 162 1.0 4.0 0.00 0.00 0.00 61 1008.6
20260901051558 67 165 0.0 4.0 0.00 0.00 0.00 61 1008.5
20260901050052 68 0 0.0 0.0 0.00 0.00 0.00 61 1008.2
20260901044617 68 0 0.0 0.0 0.00 0.00 0.00 62 1007.9
20260901043056 68 0 0.0 0.0 0.00 0.00 0.00 60 1007.8
20260901041555 70 0 0.0 0.0 0.00 0.00 0.00 58 1007.8
20260901040104 71 0 0.0 0.0 0.00 0.00 0.00 56 1007.5
20260901034558 72 0 0.0 0.0 0.00 0.00 0.00 54 1007.2